Location: Wapato
(46.4478°N, 120.4212°W)
Time: 11:42:34
(UTC+00:00)

Altair - All Passes

Search period start: 15 May 2026 00:00
Search period end: 25 May 2026 00:00
Orbit: 1501 x 1682 km, 47.2° (Epoch: 14 May)

Date Brightness Start Highest point End Pass type
(mag) Time Alt. Az. Time Alt. Az. Time Alt. Az.
15 May - 10:45:08 10° SSE 10:51:15 19° SE 10:57:27 10° E visible
15 May - 12:44:47 10° SW 12:54:17 54° SE 13:04:02 10° ENE daylight
15 May - 14:48:44 10° WSW 14:58:50 90° S 15:09:05 10° E daylight
15 May - 16:53:48 10° W 17:04:02 89° SSW 17:14:12 10° ESE daylight
15 May - 18:58:49 10° WNW 19:08:32 52° SW 19:18:06 10° SE daylight
15 May - 21:05:35 10° W 21:11:33 18° SW 21:17:27 10° SSW daylight
16 May - 10:20:41 10° SSE 10:26:10 17° SE 10:31:44 10° E visible
16 May - 12:19:43 10° SW 12:29:05 51° SE 12:38:43 10° ENE daylight
16 May - 14:23:28 10° WSW 14:33:32 88° SSE 14:43:47 10° E daylight
16 May - 16:28:32 10° W 16:38:44 90° N 16:48:56 10° ESE daylight
16 May - 18:33:32 10° WNW 18:43:20 56° SW 18:53:00 10° SE daylight
16 May - 20:39:56 10° W 20:46:28 20° SW 20:52:56 10° SSW daylight
17 May - 09:56:22 10° SSE 10:01:06 15° ESE 10:05:54 10° E visible
17 May - 11:54:39 10° SSW 12:03:54 48° SE 12:13:24 10° ENE daylight
17 May - 13:58:12 10° WSW 14:08:14 86° SSE 14:18:28 10° ENE daylight
17 May - 16:03:14 10° W 16:13:26 89° N 16:23:38 10° E daylight
17 May - 18:08:14 10° WNW 18:18:07 59° SSW 18:27:53 10° SE daylight
17 May - 20:14:21 10° W 20:21:22 22° SW 20:28:19 10° S daylight
18 May - 09:32:18 10° SE 09:36:03 13° ESE 09:39:50 10° E visible
18 May - 11:29:38 10° SSW 11:38:43 45° SE 11:48:04 10° ENE visible
18 May - 13:32:57 10° WSW 13:42:57 84° SSE 13:53:11 10° ENE daylight
18 May - 15:37:57 10° W 15:48:08 88° N 15:58:21 10° E daylight
18 May - 17:42:56 10° WNW 17:52:53 62° SSW 18:02:44 10° SE daylight
18 May - 19:48:49 10° W 19:56:16 24° SW 20:03:38 10° S daylight
19 May - 09:08:43 10° SE 09:11:00 11° ESE 09:13:17 10° ESE visible
19 May - 11:04:38 10° SSW 11:13:33 42° SE 11:22:43 10° ENE visible
19 May - 13:07:44 10° WSW 13:17:41 82° SSE 13:27:53 10° ENE daylight
19 May - 15:12:39 10° W 15:22:49 87° N 15:33:03 10° E daylight
19 May - 17:17:39 10° WNW 17:27:38 65° SSW 17:37:34 10° SE daylight
19 May - 19:23:20 10° W 19:31:09 26° SW 19:38:53 10° S daylight
20 May - 10:39:40 10° SSW 10:48:24 39° SE 10:57:23 10° ENE visible
20 May - 12:42:30 10° WSW 12:52:24 80° SSE 13:02:35 10° ENE daylight
20 May - 14:47:22 10° W 14:57:30 86° N 15:07:45 10° E daylight
20 May - 16:52:22 10° WNW 17:02:23 68° SSW 17:12:24 10° SE daylight
20 May - 18:57:53 10° WNW 19:06:01 29° SW 19:14:04 10° S daylight
21 May - 10:14:44 10° SSW 10:23:15 36° SE 10:32:01 10° ENE visible
21 May - 12:17:18 10° WSW 12:27:08 77° SSE 12:37:17 10° ENE daylight
21 May - 14:22:06 10° W 14:32:11 86° N 14:42:26 10° E daylight
21 May - 16:27:05 10° WNW 16:37:09 71° SSW 16:47:12 10° SE daylight
21 May - 18:32:28 10° WNW 18:40:52 31° SW 18:49:13 10° S daylight
22 May - 09:49:50 10° SSW 09:58:06 33° SE 10:06:37 10° ENE visible
22 May - 11:52:06 10° WSW 12:01:53 74° SSE 12:11:59 10° ENE daylight
22 May - 13:56:49 10° W 14:06:53 86° N 14:17:08 10° E daylight
22 May - 16:01:48 10° WNW 16:11:53 74° SSW 16:21:59 10° ESE daylight
22 May - 18:07:05 10° WNW 18:15:44 33° SW 18:24:20 10° SSE daylight
23 May - 09:24:58 10° S 09:32:59 31° SE 09:41:13 10° ENE visible
23 May - 11:26:55 10° SW 11:36:38 71° SSE 11:46:41 10° ENE visible
23 May - 13:31:32 10° W 13:41:34 86° N 13:51:49 10° E daylight
23 May - 15:36:33 10° WNW 15:46:37 76° SSW 15:56:46 10° ESE daylight
23 May - 17:41:43 10° WNW 17:50:34 36° SW 17:59:24 10° SSE daylight
24 May - 09:00:08 10° S 09:07:52 28° SE 09:15:48 10° ENE visible
24 May - 11:01:46 10° SW 11:11:24 68° SSE 11:21:22 10° ENE visible
24 May - 13:06:17 10° W 13:16:16 86° N 13:26:30 10° E daylight
24 May - 15:11:17 10° WNW 15:21:21 79° SSW 15:31:31 10° ESE daylight
24 May - 17:16:22 10° WNW 17:25:25 39° SW 17:34:26 10° SSE daylight
